This is the latest recevied weather packets stored in our database for station/object VK4VP-5. If no packets are shown the sender has not sent any weather packets the latest 10 day(s).
| Time | Temp. | Humidity | Pressure | Rain* | Wind** | Luminosity | Snow |
|---|---|---|---|---|---|---|---|
| 1778153973 | 18.33° C | 71% | 1012.3 hPa | 0 mm | - | - | - |
| 1778153673 | 17.78° C | 73% | 1012.3 hPa | 0 mm | - | - | - |
| 1778153373 | 17.78° C | 74% | 1012.1 hPa | 0 mm | - | - | - |
| 1778153073 | 17.78° C | 75% | 1012.1 hPa | 0 mm | - | - | - |
| 1778152773 | 17.78° C | 76% | 1012.1 hPa | 0 mm | - | - | - |
| 1778152474 | 17.78° C | 76% | 1012.3 hPa | 0 mm | - | - | - |
| 1778152172 | 17.78° C | 76% | 1012.3 hPa | 0 mm | - | - | - |
| 1778151874 | 18.33° C | 75% | 1012.3 hPa | 0 mm | - | - | - |
| 1778151573 | 18.33° C | 74% | 1012 hPa | 0 mm | - | - | - |
| 1778151273 | 18.33° C | 74% | 1012 hPa | 0 mm | - | - | - |
| 1778150974 | 18.89° C | 74% | 1012 hPa | 0 mm | - | - | - |
| 1778150672 | 18.89° C | 73% | 1011.9 hPa | 0 mm | - | - | - |
| 1778150373 | 19.44° C | 73% | 1011.9 hPa | 0 mm | - | - | - |
| 1778150074 | 19.44° C | 72% | 1011.9 hPa | 0 mm | - | - | - |
| 1778149773 | 19.44° C | 72% | 1011.8 hPa | 0 mm | - | - | - |
| 1778149474 | 20° C | 71% | 1011.8 hPa | 0 mm | - | - | - |
| 1778149173 | 20° C | 71% | 1011.8 hPa | 0 mm | - | - | - |
| 1778148872 | 20.56° C | 70% | 1011.8 hPa | 0 mm | - | - | - |
| 1778148574 | 20.56° C | 70% | 1011.8 hPa | 0 mm | - | - | - |
| 1778148274 | 20.56° C | 70% | 1011.8 hPa | 0 mm | - | - | - |
| 1778147973 | 20.56° C | 69% | 1011.7 hPa | 0 mm | - | - | - |
| 1778147674 | 20.56° C | 69% | 1011.7 hPa | 0 mm | - | - | - |
| 1778147372 | 21.11° C | 70% | 1011.7 hPa | 0 mm | - | - | - |
| 1778147073 | 21.11° C | 70% | 1011.5 hPa | 0 mm | - | - | - |
| 1778146774 | 21.11° C | 71% | 1011.5 hPa | 0 mm | - | - | - |
* Rain latest hour (hover to see other rain measurements)
** Current wind speed in m/s (hover to see current wind gust speed)